sat.trackr.live / text

‹ back to catalog

EUTELSAT 7C

NORAD 44334 · 2019-034B

PAYLOAD ACTIVE UNKNOWN

§ Identity

Operator
Country
EUTE
Launch date
2019-06-20
Launch site
FRGUI
Launch vehicle
Mass (kg)
RCS (m²)

Purposes: comms

External: N2YO · Heavens-Above · Gunter

§ Orbital elements

Epoch: 2026-09-19T15:17:38.468256Z

Period
1,436.10 min
Inclination
0.0681°
Eccentricity
0.0003266
Mean motion
1.00271630 rev/d
Perigee alt
35,772.9 km
Apogee alt
35,800.4 km
Semi-major
42,164.8 km
B*
0.0000e+0
RAAN
181.8343°
Arg perigee
337.4216°
Mean anomaly
75.7018°
Rev number
778

§ Raw data

EUTELSAT 7C1 44334U 19034B   26262.63725079  .00000044  00000+0  00000+0 0  99982 44334   0.0681 181.8343 0003266 337.4216  75.7018  1.00271630  7786

JSON: /api/v1/satellites/44334 · /tle

For live sub-satellite position, see the globe view (requires WebGL).

§ Visibility from observer

Set your observer location to see the next 7 days of passes ≥ 10°. The values pass through the URL so the page stays shareable.

No JS? Fill the form by hand. The geolocation button needs JavaScript.